Date,TemperatureHighF,TemperatureAvgF,TemperatureLowF,DewpointHighF,DewpointAvgF,DewpointLowF,HumidityHigh,HumidityAvg,HumidityLow,PressureMaxIn,PressureMinIn,WindSpeedMaxMPH,WindSpeedAvgMPH,GustSpeedMaxMPH,PrecipitationSumIn
2013-5-1,71,54,34,40,29,20,83,45,20,17.72,17.72,17,2,17,0.00
2013-5-2,65,51,39,44,34,27,87,54,34,17.72,17.72,20,2,20,0.00
2013-5-3,70,51,37,40,35,30,85,56,33,17.72,17.72,16,3,16,0.00
2013-5-4,68,49,36,41,33,27,88,59,25,17.72,17.72,22,2,22,0.00
2013-5-5,66,53,40,36,32,29,80,47,30,17.72,17.72,12,4,12,0.00
2013-5-6,68,49,34,47,37,31,94,69,33,17.72,17.72,22,3,22,0.00
2013-5-7,75,56,44,56,45,38,98,73,28,17.72,17.72,26,4,26,0.00
2013-5-8,74,60,47,61,51,45,96,75,41,17.72,17.72,21,3,21,0.00
2013-5-9,59,55,52,58,54,51,98,95,91,17.72,17.72,12,1,12,0.20
2013-5-10,73,59,50,63,51,46,98,78,43,17.72,17.72,14,2,14,0.00
2013-5-11,60,56,50,59,54,49,98,95,84,17.72,17.72,22,3,22,0.20
2013-5-12,63,57,49,62,55,41,98,94,71,17.72,17.72,12,0,12,0.08
2013-5-13,60,50,41,41,29,23,89,47,28,17.72,17.72,26,6,26,0.00
2013-5-14,61,50,42,32,27,24,59,43,29,17.72,17.72,17,1,17,0.00
2013-5-15,65,51,38,48,33,23,97,57,23,17.72,17.72,22,5,22,0.24
2013-5-16,76,60,49,58,45,33,98,64,24,17.72,17.72,20,2,20,0.00
2013-5-17,65,55,45,42,34,29,70,47,32,17.72,17.72,18,2,18,0.00
2013-5-18,66,51,39,44,36,32,87,60,33,17.72,17.72,16,2,16,0.00
2013-5-19,66,52,42,47,42,38,93,71,40,17.72,17.72,12,2,12,0.00
2013-5-20,72,58,50,63,53,47,98,87,51,17.72,17.72,16,1,16,0.79
2013-5-21,55,51,48,53,50,48,98,97,93,17.72,17.72,12,0,12,0.75
2013-5-22,56,51,48,56,50,47,98,95,84,17.72,17.72,10,0,10,0.59
2013-5-23,63,57,48,62,55,47,98,93,82,17.72,17.72,17,2,17,0.00
2013-5-24,63,59,50,62,59,50,98,98,95,17.72,17.72,22,2,22,1.30
2013-5-25,52,50,48,52,49,48,98,98,98,17.72,17.72,15,2,15,0.16